LA1ZDA-2 Weather Reports


Display with metric or nautical units.
time (UTC)temp
F
wind
direction
speed
MPH
gust
MPH
rain 1hr
in
rain 24hr
in
rain mn
in
humidity
%
barometer
mb
20260504211553 21 337 0.0 0.0 0.00 0.00 0.00
20260504211036 21 107 0.0 0.0 0.00 0.00 0.00
20260504210519 22 141 0.0 0.0 0.00 0.00 0.00
20260504210003 22 145 0.0 0.0 0.00 0.00 0.00
20260504205446 22 131 0.0 0.0 0.00 0.00 0.00
20260504204928 23 119 0.0 0.0 0.00 0.00 0.00
20260504204412 23 129 0.0 0.0 0.00 0.00 0.00
20260504203854 23 138 0.0 0.0 0.00 0.00 0.00
20260504203338 23 149 0.0 0.0 0.00 0.00 0.00
20260504202820 23 142 0.0 0.0 0.00 0.00 0.00
20260504202305 23 147 0.0 0.0 0.00 0.00 0.00
20260504201746 22 149 0.0 0.0 0.00 0.00 0.00
20260504201230 22 167 0.0 0.0 0.00 0.00 0.00
20260504200713 22 160 0.0 0.0 0.00 0.00 0.00
20260504200156 22 163 0.0 0.0 0.00 0.00 0.00
20260504195639 23 155 0.0 0.0 0.00 0.00 0.00
20260504195122 23 147 0.0 0.0 0.00 0.00 0.00
20260504194605 23 147 0.0 0.0 0.00 0.00 0.00
20260504194048 23 143 0.0 0.0 0.00 0.00 0.00
20260504193531 23 150 0.0 0.0 0.00 0.00 0.00
20260504193014 23 132 0.0 0.0 0.00 0.00 0.00
20260504192457 23 147 0.0 0.0 0.00 0.00 0.00
20260504191940 24 135 0.0 0.0 0.00 0.00 0.00
20260504191423 24 140 0.0 0.0 0.00 0.00 0.00
20260504190906 24 152 0.0 0.0 0.00 0.00 0.00
20260504190349 24 139 0.0 0.0 0.00 0.00 0.00
20260504185832 24 136 0.0 0.0 0.00 0.00 0.00
20260504185315 25 125 0.0 0.0 0.00 0.00 0.00
20260504184758 25 140 0.0 0.0 0.00 0.00 0.00
20260504184241 26 136 0.0 0.0 0.00 0.00 0.00
20260504183724 27 137 0.0 0.0 0.00 0.00 0.00
20260504183207 28 136 0.0 0.0 0.00 0.00 0.00
20260504182650 28 139 0.0 0.0 0.00 0.00 0.00
20260504182133 28 132 0.0 0.0 0.00 0.00 0.00
20260504181616 28 147 0.0 0.0 0.00 0.00 0.00
20260504181059 28 145 0.0 0.0 0.00 0.00 0.00
20260504180542 28 129 0.0 0.0 0.00 0.00 0.00
20260504180025 28 137 0.0 0.0 0.00 0.00 0.00
20260504175508 28 141 0.0 0.0 0.00 0.00 0.00
20260504174951 29 137 0.0 0.0 0.00 0.00 0.00
20260504174435 30 138 0.0 0.0 0.00 0.00 0.00
20260504173917 31 148 0.0 0.0 0.00 0.00 0.00
20260504173401 31 137 0.0 0.0 0.00 0.00 0.00
20260504172843 31 126 0.0 0.0 0.00 0.00 0.00
20260504172327 32 138 0.0 0.0 0.00 0.00 0.00
20260504171809 32 136 0.0 0.0 0.00 0.00 0.00
20260504171253 32 138 0.0 0.0 0.00 0.00 0.00
20260504170735 32 142 0.0 0.0 0.00 0.00 0.00
20260504170219 32 135 0.0 0.0 0.00 0.00 0.00
20260504160412 31 146 0.0 0.0 0.00 0.00 0.00
20260504151122 32 135 0.0 0.0 0.00 0.00 0.00
20260504150605 32 315 0.0 0.0 0.00 0.00 0.00
20260504141316 33 144 0.0 0.0 0.00 0.00 0.00
20260504140758 34 145 0.0 0.0 0.00 0.00 0.00
20260504140242 34 160 0.0 1.0 0.00 0.00 0.00
20260504130435 33 144 0.0 1.0 0.00 0.00 0.00
20260504120111 39 147 0.0 1.0 0.00 0.00 0.00
20260504110305 36 143 0.0 1.0 0.00 0.00 0.00
20260504100458 37 142 0.0 0.0 0.00 0.00 0.00
20260504090134 37 151 0.0 1.0 0.00 0.00 0.00
20260504081918 39 142 0.0 0.0 0.00 0.00 0.00
20260504081401 37 150 0.0 0.0 0.00 0.00 0.00
20260504080844 36 139 0.0 0.0 0.00 0.00 0.00
20260504080327 36 153 0.0 0.0 0.00 0.00 0.00
20260504060157 32 144 0.0 0.0 0.00 0.00 0.00
20260504050350 26 142 0.0 0.0 0.00 0.00 0.00
20260504045833 26 137 0.0 0.0 0.00 0.00 0.00
20260504045316 27 147 0.0 0.0 0.00 0.00 0.00
20260504044759 27 148 0.0 0.0 0.00 0.00 0.00
20260504044242 27 145 0.0 0.0 0.00 0.00 0.00
20260504043725 27 149 0.0 0.0 0.00 0.00 0.00
20260504043208 27 143 0.0 0.0 0.00 0.00 0.00
20260504042651 27 148 0.0 0.0 0.00 0.00 0.00
20260504042134 27 152 0.0 0.0 0.00 0.00 0.00
20260504041617 27 147 0.0 0.0 0.00 0.00 0.00
20260504041101 27 171 0.0 0.0 0.00 0.00 0.00
20260504040543 27 147 0.0 0.0 0.00 0.00 0.00
20260504040027 27 157 0.0 1.0 0.00 0.00 0.00
20260504035509 27 154 0.0 1.0 0.00 0.00 0.00
20260504034953 27 166 0.0 0.0 0.00 0.00 0.00
20260504034435 27 157 0.0 0.0 0.00 0.00 0.00
20260504033919 27 160 0.0 0.0 0.00 0.00 0.00
20260504033401 27 156 0.0 1.0 0.00 0.00 0.00
20260504032845 27 160 0.0 1.0 0.00 0.00 0.00
20260504032328 28 161 0.0 1.0 0.00 0.00 0.00
20260504031811 28 146 0.0 1.0 0.00 0.00 0.00
20260504031254 28 150 0.0 0.0 0.00 0.00 0.00
20260504030737 28 164 0.0 0.0 0.00 0.00 0.00
20260504030220 28 155 0.0 0.0 0.00 0.00 0.00
20260504025703 28 150 0.0 0.0 0.00 0.00 0.00
20260504025146 28 154 0.0 2.0 0.00 0.00 0.00
20260504024629 28 161 0.0 0.0 0.00 0.00 0.00
20260504024112 28 145 0.0 1.0 0.00 0.00 0.00
20260504023555 28 147 0.0 0.0 0.00 0.00 0.00
20260504023038 28 141 0.0 0.0 0.00 0.00 0.00
20260504022521 28 139 0.0 0.0 0.00 0.00 0.00
20260504022004 28 135 0.0 0.0 0.00 0.00 0.00
20260504021447 28 142 0.0 0.0 0.00 0.00 0.00
20260504020930 28 135 0.0 0.0 0.00 0.00 0.00
20260504020413 28 136 0.0 0.0 0.00 0.00 0.00
20260504015856 28 135 0.0 0.0 0.00 0.00 0.00
20260504015339 28 121 0.0 0.0 0.00 0.00 0.00
20260504014822 28 138 0.0 0.0 0.00 0.00 0.00
20260504014305 28 133 0.0 0.0 0.00 0.00 0.00
20260504013748 28 136 0.0 0.0 0.00 0.00 0.00
20260504013231 28 135 0.0 0.0 0.00 0.00 0.00
20260504012714 28 141 0.0 0.0 0.00 0.00 0.00
20260504012157 28 142 0.0 0.0 0.00 0.00 0.00
20260504011640 28 138 0.0 0.0 0.00 0.00 0.00
20260504011123 28 337 0.0 0.0 0.00 0.00 0.00
20260504010606 28 135 0.0 0.0 0.00 0.00 0.00
20260504010049 28 142 0.0 0.0 0.00 0.00 0.00
20260504005532 28 135 0.0 0.0 0.00 0.00 0.00
20260504005015 28 137 0.0 0.0 0.00 0.00 0.00
20260504004458 28 139 0.0 0.0 0.00 0.00 0.00
20260504003942 28 139 0.0 0.0 0.00 0.00 0.00
20260504003424 27 143 0.0 0.0 0.00 0.00 0.00
20260504002908 27 147 0.0 0.0 0.00 0.00 0.00
20260504002350 27 133 0.0 0.0 0.00 0.00 0.00
20260504001834 27 135 0.0 0.0 0.00 0.00 0.00
20260504001316 27 135 0.0 0.0 0.00 0.00 0.00
20260504000800 27 136 0.0 0.0 0.00 0.00 0.00
20260504000243 26 139 0.0 0.0 0.00 0.00 0.00
20260503235726 26 142 0.0 0.0 0.00 0.00 0.00
20260503235208 25 150 0.0 0.0 0.00 0.00 0.00
20260503234652 25 163 0.0 0.0 0.00 0.00 0.00
20260503234135 24 183 0.0 0.0 0.00 0.00 0.00
20260503233618 24 332 0.0 0.0 0.00 0.00 0.00
20260503233101 24 318 0.0 0.0 0.00 0.00 0.00
20260503232544 24 320 0.0 0.0 0.00 0.00 0.00
20260503232027 24 304 0.0 0.0 0.00 0.00 0.00
20260503231510 25 276 0.0 0.0 0.00 0.00 0.00
20260503230953 25 267 0.0 0.0 0.00 0.00 0.00
20260503230436 25 270 0.0 0.0 0.00 0.00 0.00
20260503225919 24 276 0.0 0.0 0.00 0.00 0.00
20260503225402 24 319 0.0 0.0 0.00 0.00 0.00
20260503224845 24 307 0.0 0.0 0.00 0.00 0.00
20260503224328 24 315 0.0 0.0 0.00 0.00 0.00
20260503223811 24 301 0.0 0.0 0.00 0.00 0.00
20260503223254 24 297 0.0 0.0 0.00 0.00 0.00
20260503222737 24 315 0.0 0.0 0.00 0.00 0.00
20260503222220 24 333 0.0 0.0 0.00 0.00 0.00
20260503221703 24 315 0.0 0.0 0.00 0.00 0.00
20260503221146 23 315 0.0 0.0 0.00 0.00 0.00
20260503220629 24 315 0.0 0.0 0.00 0.00 0.00
20260503220112 24 358 0.0 0.0 0.00 0.00 0.00
20260503215555 23 331 0.0 0.0 0.00 0.00 0.00
20260503215038 23 316 0.0 0.0 0.00 0.00 0.00
20260503214521 23 320 0.0 0.0 0.00 0.00 0.00
20260503214004 23 315 0.0 0.0 0.00 0.00 0.00
20260503213447 24 313 0.0 0.0 0.00 0.00 0.00
20260503212930 25 19 0.0 0.0 0.00 0.00 0.00
20260503212413 25 137 0.0 0.0 0.00 0.00 0.00